Simultaneous Nadir Overpasses (SNOs) Predictions

Prediction of SNOs between LANDSAT-8 and METOP-A Satellite Orbit:

Table of predicted SNOs for the next 14.0 days since TLE Epoch: 10/12/2019
Index Date (LANDSAT-8) Time (LANDSAT-8) Lat,Lon (LANDSAT-8) SZA (LANDSAT-8 ) Date (METOP-A) Time (METOP-A) Lat,Lon (METOP-A) SZA (METOP-A ) Distance(km) Time Diff (sec)
1 10/12/2019 22:27:39 -81.48, 69.76 87.98 10/12/2019 22:26:45 -81.48, 69.66 88.02 1.71 54
2 10/12/2019 23:17:06 81.47,-122.88 92.00 10/12/2019 23:17:26 81.48,-123.05 91.99 3.01 20
3 10/15/2019 18:01:54 -81.48, 136.05 86.94 10/15/2019 18:01:08 -81.48, 136.09 86.96 0.58 46
4 10/15/2019 18:51:20 81.48, -56.21 93.09 10/15/2019 18:51:48 81.48, -56.24 93.10 0.76 28
5 10/18/2019 13:36:10 -81.47,-157.68 85.93 10/18/2019 13:35:32 -81.48,-157.51 85.92 2.98 38
6 10/18/2019 14:25:36 81.47, 10.04 94.10 10/18/2019 14:26:12 81.48, 10.16 94.14 1.96 36
7 10/21/2019 09:10:25 -81.48, -91.04 84.88 10/21/2019 09:09:56 -81.48, -91.12 84.90 1.27 29
8 10/21/2019 09:59:51 81.48, 76.66 95.15 10/21/2019 10:00:36 81.48, 76.53 95.15 2.19 45
9 10/24/2019 04:44:40 -81.47, -24.82 83.91 10/24/2019 04:44:19 -81.48, -24.75 83.91 1.51 21




NCC Satellite Simultaneous Nadir Overpasses (SNOs) Prediction Service
